• MPC Preparation (Info)

  • MPEC 2019-N129 : 2019 NL5

    The following Minor Planet Electronic Circular may be linked-to from your own Web pages, but must not otherwise be redistributed electronically.

    A form allowing access to any MPEC is at the bottom of this page.


    Read MPEC 2019-N128 Read MPEC 2019-N130


    M.P.E.C. 2019-N129                                Issued 2019 July 9, 13:29 UT  
    
         The Minor Planet Electronic Circulars contain information on unusual
             minor planets and routine data on comets.  They are published
        on behalf of Division F of the International Astronomical Union by the
              Minor Planet Center, Smithsonian Astrophysical Observatory,
                              Cambridge, MA 02138, U.S.A.
    
                 Prepared using the Tamkin Foundation Computer Network
    
                                  MPC@CFA.HARVARD.EDU
                URL https://www.minorplanetcenter.net/    ISSN 1523-6714
    
                                    2019 NL5                                 
    
    Observations:
         K19N05L  C2019 06 13.53152920 00 54.799-03 20 17.32         20.6 GVEN129F52
         K19N05L  C2019 06 13.54266820 00 55.765-03 20 39.26         20.6 GVEN129F52
         K19N05L  C2019 06 13.55370920 00 56.709-03 21 00.81         20.8 GVEN129F52
         K19N05L  C2019 06 13.56471220 00 57.653-03 21 22.36         20.9 GVEN129F52
         K19N05L* C2019 07 04.46156 20 27 46.382-17 50 48.84         20.3 wUEN129F51
         K19N05L  C2019 07 04.47322 20 27 46.946-17 51 22.28         20.1 wUEN129F51
         K19N05L  C2019 07 04.48486 20 27 47.510-17 51 55.60         20.3 wUEN129F51
         K19N05L  C2019 07 04.49651 20 27 48.075-17 52 28.96         20.3 wUEN129F51
         K19N05L KC2019 07 04.99298 20 28 16.54 -18 16 15.2          19.5 RoEN129K88
         K19N05L KC2019 07 04.99804 20 28 16.77 -18 16 29.2          19.2 RoEN129K88
         K19N05L KC2019 07 05.09556 20 28 22.02 -18 21 08.1          19.5 VqEN129I93
         K19N05L KC2019 07 05.10370 20 28 22.44 -18 21 31.0          19.4 VqEN129I93
         K19N05L HC2019 07 05.29204 20 28 34.00 -18 30 27.7          20.0 RoEN129691
         K19N05L  C2019 07 05.29719 20 28 34.22 -18 30 42.1          20.2 GVEN129I52
         K19N05L HC2019 07 05.29809 20 28 34.31 -18 30 45.0          20.2 RoEN129691
         K19N05L HC2019 07 05.30414 20 28 34.57 -18 31 02.3          20.5 RoEN129691
         K19N05L  C2019 07 05.30510 20 28 34.59 -18 31 05.1          20.0 GVEN129I52
         K19N05L  C2019 07 05.31134 20 28 34.92 -18 31 22.7          19.9 GVEN129I52
         K19N05L KC2019 07 06.00443 20 29 12.92 -19 04 33.6          19.4 RoEN129K88
         K19N05L KC2019 07 06.00939 20 29 13.14 -19 04 47.1          19.1 RoEN129K88
         K19N05L KC2019 07 06.01402 20 29 13.40 -19 05 00.9                oEN129K88
         K19N05L  C2019 07 07.47831 20 30 31.923-20 14 55.43         20.1 wUEN129F51
         K19N05L  C2019 07 07.49070 20 30 32.449-20 15 31.06         20.2 wUEN129F51
         K19N05L  C2019 07 07.50312 20 30 32.981-20 16 06.63         20.1 wUEN129F51
         K19N05L HC2019 07 08.32832 20 31 15.81 -20 55 34.8          19.5 RoEN129691
         K19N05L HC2019 07 08.33417 20 31 16.07 -20 55 52.1          19.6 RoEN129691
         K19N05L HC2019 07 08.34004 20 31 16.30 -20 56 08.3          19.7 RoEN129691
         K19N05L  C2019 07 08.34220 20 31 16.37 -20 56 15.0          19.6 GVEN129I52
         K19N05L  C2019 07 08.34540 20 31 16.53 -20 56 24.0          19.7 GVEN129I52
         K19N05L  C2019 07 08.34982 20 31 16.71 -20 56 36.6          19.8 GVEN129I52
         K19N05L  C2019 07 08.35029 20 31 16.73 -20 56 38.1          19.8 GVEN129I52
         K19N05L HC2019 07 09.29434 20 32 04.25 -21 41 37.5          20.1 RoEN129691
         K19N05L HC2019 07 09.30052 20 32 04.48 -21 41 55.2                oEN129691
         K19N05L HC2019 07 09.30670 20 32 04.74 -21 42 12.1          19.5 RoEN129691
    
    Observer details:
    691 Steward Observatory, Kitt Peak-Spacewatch.  Observer R. A. Mastaler.  
        0.9-m f/3 reflector + CCD.
    F51 Pan-STARRS 1, Haleakala.  Observers J. Bulger, T. Lowe, A. Schultz,
        M. Willman.  Measurers K. Chambers, S. Chastel, T. de Boer, L. Denneau,
        J. Fairlamb, H. Flewelling, M. Huber, C.-C. Lin, E. Magnier, Y. Ramanjooloo,
        R. Wainscoat, R. Weryk.  1.8-m Ritchey-Chretien + CCD.
    F52 Pan-STARRS 2, Haleakala.  Observers J. Bulger, K. Chambers, T. Dukes,
        T. Lowe, E. Magnier, A. Schultz, M. Willman.  Measurers S. Chastel,
        M. Huber, Y. Ramanjooloo, R. Wainscoat, R. Weryk.  
        1.8-m Ritchey-Chretien + CCD.
    I52 Steward Observatory, Mt. Lemmon Station.  Observers G. J. Leonard,
        D. C. Fuls.  Measurers B. M. Africano, E. J. Christensen, G. A. Farneth,
        D. C. Fuls, A. R. Gibbs, A. D. Grauer, H. Groeller, R. A. Kowalski,
        S. M. Larson, G. J. Leonard, T. A. Pruyne, D. Rankin, R. L. Seaman,
        F. C. Shelly.  1.0-m reflector + CCD.
    I93 St Pardon de Conques.  Observer F. Losse.  0.40-m f/3.7 reflector + CCD.
    K88 GINOP-KHK, Piszkesteto.  Observers K. Sarneczky, G. Csornyei.  
        Measurer K. Sarneczky.  0.60-m Schmidt + CCD.
    
    Orbital elements:
    2019 NL5                                                 Earth MOID = 0.3515 AU
    Epoch 2019 Apr. 27.0 TT = JDT 2458600.5                 MPC
    M 350.35529              (2000.0)            P               Q
    n   0.20784837     Peri.  162.12620     +0.03813194     +0.95565810
    a   2.8225282      Node   109.24471     -0.95042789     +0.12492669
    e   0.5187245      Incl.   18.01597     -0.30859809     -0.26666631
    P   4.74           H   20.6           G   0.15           U   5
    Residuals in seconds of arc
    190613 F52  0.0   0.0     190705 691  0.1+  0.3-    190708 691  0.3-  0.0
    190613 F52  0.1+  0.1-    190705 I52  0.1-  0.3+    190708 691  0.1-  0.4-
    190613 F52  0.0   0.0     190705 691  0.3+  0.2-    190708 691  0.3-  0.2+
    190613 F52  0.1-  0.0     190705 691  0.2-  0.0     190708 I52  0.3-  0.1-
    190704 F51  0.0   0.0     190705 I52  0.3-  0.1+    190708 I52  0.0   0.0
    190704 F51  0.1-  0.0     190705 I52  0.1+  0.5+    190708 I52  0.1-  0.1+
    190704 F51  0.0   0.0     190706 K88  0.4+  0.2-    190708 I52  0.1-  0.0
    190704 F51  0.0   0.0     190706 K88  0.1+  0.5+    190709 691  0.3+  0.3-
    190704 K88  0.1-  0.1+    190706 K88  0.7+  0.0     190709 691  0.0   0.2-
    190704 K88  0.4-  0.6+    190707 F51  0.1+  0.0     190709 691  0.1+  0.6+
    190705 I93  0.1-  0.2+    190707 F51  0.0   0.0
    190705 I93  0.2+  0.5+    190707 F51  0.1+  0.0
    
    Ephemeris:
    2019 NL5                 a,e,i = 2.82, 0.52, 18                  q = 1.3584
    Date    TT    R. A. (2000) Decl.     Delta      r    Elong.  Phase     V
    2019 06 09    19 53 33.1 -01 02 33   0.4413  1.3589   133.9    32.5    20.9
    ...
    2019 06 24    20 15 57.8 -09 54 34   0.3950  1.3640   146.7    24.1    20.4
    ...
    2019 07 02    20 25 18.1 -15 54 02   0.3847  1.3742   154.6    18.5    20.2
    ...
    2019 07 08    20 30 58.7 -20 39 34   0.3850  1.3852   160.3    14.3    20.0
    2019 07 09    20 31 49.1 -21 27 17   0.3857  1.3873   161.2    13.7    20.0
    2019 07 10    20 32 37.7 -22 14 49   0.3866  1.3895   162.0    13.1    20.0
    ...
    2019 07 16    20 36 54.6 -26 52 39   0.3964  1.4041   165.8    10.3    20.0
    ...
    2019 07 24    20 41 15.0 -32 25 53   0.4205  1.4274   165.9    10.0    20.1
    ...
    2019 08 08    20 47 05.0 -39 53 51   0.4972  1.4821   156.0    16.2    20.8
    
    A. U. Tomatic                (C) Copyright 2019 MPC           M.P.E.C. 2019-N129
    


    Read MPEC 2019-N128 Read MPEC 2019-N130


    MPEC number:

    Enter an MPEC number in one of the following forms:

    • 1997-B01 (the full form)
    • J97B01 (the packed version of the full form)
    • B01 (the abbreviated form)